Terminal Aerodrome Forecast
Issued by NWS

Home | Current Version | Previous Version | Text Only | Print | Product List | Glossary On
Versions: 1 2 3 4 5 6 7 8 9 10 11 12 13
000
FTUS41 KCAR 061120
TAFHUL
TAF
KHUL 061120Z 0612/0712 28008KT P6SM FEW250
     FM061500 30012G19KT P6SM FEW250
     FM070000 30008KT P6SM SCT110=

USA.gov is the U.S. government's official web portal to all federal, state and local government web resources and services.